Location: Stigler
(35.2540°N, 95.1230°W)
Time: 11:54:36
(UTC-05:00)

Cosmos 1943 Rocket - Pass Details

Date: 26 September 2017
Orbit: 812 x 844 km, 71.0° (Epoch: 17 October)

Event Time Altitude Azimuth Distance (km) Brightness Sun altitude
Rises 19:51:59 0° 329° (NNW) 3,373 5.9 -9.2°
Reaches altitude 10° 19:54:33 10° 322° (NW) 2,441 5.3 -9.7°
Maximum altitude 19:59:40 38° 256° (WSW) 1,244 3.8 -10.8°
Drops below altitude 10° 20:04:50 10° 189° (S) 2,445 4.6 -11.8°
Sets 20:07:25 0° 181° (S) 3,379 5.3 -12.3°
